CET,Max TemperatureF,Mean TemperatureF,Min TemperatureF,Max Dew PointF,MeanDew PointF,Min DewpointF,Max Humidity, Mean Humidity, Min Humidity, Max Sea Level PressureIn, Mean Sea Level PressureIn, Min Sea Level PressureIn, Max VisibilityMiles, Mean VisibilityMiles, Min VisibilityMiles, Max Wind SpeedMPH, Mean Wind SpeedMPH, Max Gust SpeedMPH,PrecipitationIn, CloudCover, Events, WindDirDegrees
2011-10-1,84,70,57,55,51,46,82,49,28,30.18,30.12,30.06,6,6,6,12,3,17,0.00,1,,162
2011-10-2,86,72,57,57,50,41,82,49,20,30.27,30.22,30.18,6,6,6,8,4,,0.00,1,,129
2011-10-3,86,70,55,55,51,45,88,53,25,30.33,30.27,30.21,6,6,6,12,2,,0.00,1,,274
2011-10-4,87,69,51,59,51,34,88,54,15,30.30,30.23,30.15,6,6,6,14,3,,0.00,1,,153
2011-10-5,87,68,48,55,45,36,94,49,16,30.27,30.22,30.15,6,6,6,9,1,,0.00,1,,222
2011-10-6,89,70,50,50,44,34,87,46,16,30.27,30.20,30.12,,,,8,2,,0.00,,,307
2011-10-7,87,68,48,48,44,39,76,42,19,30.18,30.11,30.04,6,6,6,9,1,,0.00,1,,312
2011-10-8,80,70,59,54,44,37,72,41,28,30.21,30.16,30.09,6,6,6,12,5,,0.00,1,,317
2011-10-9,80,64,48,55,46,39,87,53,23,30.24,30.21,30.18,6,6,6,7,1,,0.00,1,,110
2011-10-10,86,67,48,50,42,32,94,43,14,30.33,30.28,30.24,,,,14,3,,0.00,,,171
2011-10-11,87,66,46,46,40,32,82,44,14,30.33,30.27,30.21,,,,6,1,,0.00,,,273
2011-10-12,91,70,48,41,38,34,76,36,13,30.27,30.21,30.15,6,6,6,9,1,,0.00,1,,190
2011-10-13,91,70,48,46,37,28,66,35,11,30.21,30.15,30.09,6,6,6,7,1,,0.00,1,,240
2011-10-14,91,70,48,46,39,28,71,38,10,30.12,30.08,30.04,6,6,6,14,2,,0.00,1,,215
2011-10-15,80,65,50,57,51,41,77,57,39,30.21,30.17,30.12,6,6,6,9,2,,0.00,1,,251
2011-10-16,78,64,50,55,51,48,94,61,34,30.27,30.21,30.15,6,6,4,15,2,,0.00,1,,195
2011-10-17,78,64,50,54,50,43,94,61,28,30.24,30.18,30.12,6,6,6,10,1,,0.00,1,,182
2011-10-18,78,62,46,52,47,37,93,59,24,30.18,30.14,30.06,6,6,6,10,1,,0.00,1,,182
2011-10-19,78,61,44,50,43,37,93,54,23,30.21,30.14,30.06,6,6,6,7,1,,0.00,1,,275
2011-10-20,80,61,42,54,44,37,87,53,21,30.18,30.12,30.06,6,6,6,12,1,,0.00,1,,238
2011-10-21,78,63,48,54,47,39,94,59,24,30.12,30.05,29.98,6,6,6,6,1,,0.00,1,,145
2011-10-22,62,55,48,57,52,46,100,87,63,30.06,30.04,30.01,6,6,4,8,1,,0.00,3,Rain,190
2011-10-23,71,60,48,55,52,48,100,78,50,30.04,29.95,29.89,6,5,0,13,4,,0.00,2,Fog-Rain,207
2011-10-24,62,58,53,59,54,48,100,85,63,29.74,29.68,29.62,6,6,3,14,7,,0.00,5,Rain,184
2011-10-25,64,56,48,54,48,45,100,75,49,30.01,29.89,29.77,6,6,4,12,2,,0.00,2,,265
2011-10-26,66,54,41,50,46,39,100,72,49,30.01,29.94,29.89,6,6,6,14,3,,0.00,3,,204
2011-10-27,64,60,55,55,53,48,100,83,59,29.92,29.83,29.77,6,6,2,14,6,,0.00,5,Rain,267
2011-10-28,68,60,51,54,52,48,100,76,52,30.12,30.03,29.95,6,6,6,12,4,,0.00,3,,310
2011-10-29,71,58,44,54,51,45,100,74,49,30.15,30.12,30.09,6,6,6,14,3,,0.00,1,,44
2011-10-30,73,60,46,55,52,46,100,70,44,30.21,30.16,30.12,6,6,6,7,1,,0.00,4,,178
2011-10-31,75,62,48,57,53,48,100,74,44,30.15,30.09,30.04,6,6,6,8,1,,0.00,1,Rain,249